Time,TemperatureF,DewpointF,PressureIn,WindDirection,WindDirectionDegrees,WindSpeedMPH,WindSpeedGustMPH,Humidity,HourlyPrecipIn,Conditions,Clouds,dailyrainin,SoftwareType,DateUTC
2013-05-17 00:00:00,50.3,39.0,30.07,NE,48,6.0,6.0,65,0.00,,,0.00,Wunderground v.1.15,2013-05-17 05:00:00,
2013-05-17 00:05:00,50.3,39.0,30.07,ENE,60,6.0,14.0,65,0.00,,,0.00,Wunderground v.1.15,2013-05-17 05:05:00,
2013-05-17 00:10:00,50.2,38.9,30.07,NE,46,5.0,14.0,65,0.00,,,0.00,Wunderground v.1.15,2013-05-17 05:10:00,
2013-05-17 00:15:00,50.1,39.6,30.07,NE,41,5.0,14.0,67,0.00,,,0.00,Wunderground v.1.15,2013-05-17 05:15:00,
2013-05-17 00:20:00,50.0,39.8,30.07,NE,38,5.0,14.0,68,0.00,,,0.00,Wunderground v.1.15,2013-05-17 05:20:00,
2013-05-17 00:25:00,49.9,40.1,30.07,East,87,6.0,14.0,69,0.00,,,0.00,Wunderground v.1.15,2013-05-17 05:25:00,
2013-05-17 00:30:00,49.7,40.3,30.07,ENE,64,5.0,5.0,70,0.00,,,0.00,Wunderground v.1.15,2013-05-17 05:30:00,
2013-05-17 00:35:00,49.5,40.1,30.07,ENE,78,4.0,14.0,70,0.00,,,0.00,Wunderground v.1.15,2013-05-17 05:35:00,
2013-05-17 00:45:00,49.4,40.4,30.07,East,79,4.0,14.0,71,0.00,,,0.00,Wunderground v.1.15,2013-05-17 05:45:00,
2013-05-17 00:50:00,49.3,40.7,30.07,ENE,72,4.0,14.0,72,0.00,,,0.00,Wunderground v.1.15,2013-05-17 05:50:00,
2013-05-17 01:00:00,49.2,40.9,30.07,ENE,66,3.0,14.0,73,0.00,,,0.00,Wunderground v.1.15,2013-05-17 06:00:00,
2013-05-17 01:05:00,49.1,41.2,30.07,ENE,62,3.0,14.0,74,0.00,,,0.00,Wunderground v.1.15,2013-05-17 06:05:00,
2013-05-17 01:10:00,48.9,41.0,30.07,ENE,77,4.0,4.0,74,0.00,,,0.00,Wunderground v.1.15,2013-05-17 06:10:00,
2013-05-17 01:15:00,48.9,41.0,30.07,NE,51,5.0,5.0,74,0.00,,,0.00,Wunderground v.1.15,2013-05-17 06:15:00,
2013-05-17 01:20:00,48.9,41.0,30.07,ENE,78,4.0,14.0,74,0.00,,,0.00,Wunderground v.1.15,2013-05-17 06:20:00,
2013-05-17 01:25:00,48.9,41.0,30.07,NE,56,4.0,14.0,74,0.00,,,0.00,Wunderground v.1.15,2013-05-17 06:25:00,
2013-05-17 01:30:00,48.8,40.9,30.07,NE,49,4.0,4.0,74,0.00,,,0.00,Wunderground v.1.15,2013-05-17 06:30:00,
2013-05-17 01:35:00,48.7,40.8,30.07,NE,46,4.0,14.0,74,0.00,,,0.00,Wunderground v.1.15,2013-05-17 06:35:00,
2013-05-17 01:40:00,48.6,40.7,30.07,NE,38,4.0,14.0,74,0.00,,,0.00,Wunderground v.1.15,2013-05-17 06:40:00,
2013-05-17 01:50:00,48.4,40.8,30.07,NE,44,4.0,14.0,75,0.00,,,0.00,Wunderground v.1.15,2013-05-17 06:50:00,
2013-05-17 01:55:00,48.4,41.2,30.07,NE,46,5.0,14.0,76,0.00,,,0.00,Wunderground v.1.15,2013-05-17 06:55:00,
2013-05-17 02:00:00,48.3,41.1,30.06,NE,55,5.0,14.0,76,0.00,,,0.00,Wunderground v.1.15,2013-05-17 07:00:00,
2013-05-17 02:05:00,48.3,41.1,30.06,ENE,67,5.0,14.0,76,0.00,,,0.00,Wunderground v.1.15,2013-05-17 07:05:00,
2013-05-17 02:10:00,48.2,40.6,30.06,East,92,5.0,14.0,75,0.00,,,0.00,Wunderground v.1.15,2013-05-17 07:10:00,
2013-05-17 02:15:00,48.1,40.2,30.07,ENE,65,5.0,14.0,74,0.00,,,0.00,Wunderground v.1.15,2013-05-17 07:15:00,
2013-05-17 02:20:00,48.0,40.1,30.07,NE,55,5.0,14.0,74,0.00,,,0.00,Wunderground v.1.15,2013-05-17 07:20:00,
2013-05-17 02:30:00,47.7,39.8,30.07,ENE,71,6.0,6.0,74,0.00,,,0.00,Wunderground v.1.15,2013-05-17 07:30:00,
2013-05-17 02:35:00,47.6,40.1,30.07,NE,55,7.0,7.0,75,0.00,,,0.00,Wunderground v.1.15,2013-05-17 07:35:00,
2013-05-17 02:40:00,47.5,39.6,30.07,ENE,70,7.0,7.0,74,0.00,,,0.00,Wunderground v.1.15,2013-05-17 07:40:00,
2013-05-17 02:50:00,47.2,39.7,30.08,NE,51,7.0,7.0,75,0.00,,,0.00,Wunderground v.1.15,2013-05-17 07:50:00,
2013-05-17 02:55:00,47.1,39.2,30.08,NE,55,6.0,14.0,74,0.00,,,0.00,Wunderground v.1.15,2013-05-17 07:55:00,
2013-05-17 03:00:00,46.9,39.4,30.07,ENE,66,5.0,14.0,75,0.00,,,0.00,Wunderground v.1.15,2013-05-17 08:00:00,
2013-05-17 03:05:00,46.7,39.5,30.07,ENE,68,5.0,14.0,76,0.00,,,0.00,Wunderground v.1.15,2013-05-17 08:05:00,
2013-05-17 03:10:00,46.5,39.3,30.08,ENE,71,6.0,6.0,76,0.00,,,0.00,Wunderground v.1.15,2013-05-17 08:10:00,
2013-05-17 03:15:00,46.4,39.6,30.08,NE,54,6.0,14.0,77,0.00,,,0.00,Wunderground v.1.15,2013-05-17 08:15:00,
2013-05-17 03:20:00,46.3,39.5,30.08,NE,55,6.0,14.0,77,0.00,,,0.00,Wunderground v.1.15,2013-05-17 08:20:00,
2013-05-17 03:25:00,46.1,39.6,30.08,East,80,7.0,14.0,78,0.00,,,0.00,Wunderground v.1.15,2013-05-17 08:25:00,
2013-05-17 03:35:00,45.7,39.6,30.08,ENE,59,7.0,14.0,79,0.00,,,0.00,Wunderground v.1.15,2013-05-17 08:35:00,
2013-05-17 03:40:00,45.6,39.5,30.09,East,86,6.0,14.0,79,0.00,,,0.00,Wunderground v.1.15,2013-05-17 08:40:00,
2013-05-17 03:45:00,45.5,39.7,30.09,ENE,65,5.0,14.0,80,0.00,,,0.00,Wunderground v.1.15,2013-05-17 08:45:00,
2013-05-17 03:50:00,45.5,39.7,30.09,East,80,6.0,6.0,80,0.00,,,0.00,Wunderground v.1.15,2013-05-17 08:50:00,
2013-05-17 03:55:00,45.4,39.6,30.09,ENE,74,5.0,7.0,80,0.00,,,0.00,Wunderground v.1.15,2013-05-17 08:55:00,
2013-05-17 04:00:00,45.3,39.8,30.09,ENE,71,5.0,14.0,81,0.00,,,0.00,Wunderground v.1.15,2013-05-17 09:00:00,
2013-05-17 04:05:00,45.2,39.7,30.09,NE,34,6.0,14.0,81,0.00,,,0.00,Wunderground v.1.15,2013-05-17 09:05:00,
2013-05-17 04:10:00,45.1,39.6,30.09,ENE,58,6.0,6.0,81,0.00,,,0.00,Wunderground v.1.15,2013-05-17 09:10:00,
2013-05-17 04:15:00,45.0,39.5,30.09,East,88,6.0,14.0,81,0.00,,,0.00,Wunderground v.1.15,2013-05-17 09:15:00,
2013-05-17 04:20:00,44.9,39.4,30.09,East,84,6.0,6.0,81,0.00,,,0.00,Wunderground v.1.15,2013-05-17 09:20:00,
2013-05-17 04:25:00,44.9,39.7,30.09,East,80,5.0,14.0,82,0.00,,,0.00,Wunderground v.1.15,2013-05-17 09:25:00,
2013-05-17 04:30:00,44.8,39.6,30.10,NE,42,6.0,6.0,82,0.00,,,0.00,Wunderground v.1.15,2013-05-17 09:30:00,
2013-05-17 04:35:00,44.8,40.0,30.10,East,87,6.0,7.0,83,0.00,,,0.00,Wunderground v.1.15,2013-05-17 09:35:00,
2013-05-17 04:40:00,44.8,40.0,30.10,ENE,74,6.0,6.0,83,0.00,,,0.00,Wunderground v.1.15,2013-05-17 09:40:00,
2013-05-17 04:45:00,44.8,40.0,30.10,North,5,6.0,7.0,83,0.00,,,0.00,Wunderground v.1.15,2013-05-17 09:45:00,
2013-05-17 04:50:00,44.8,40.0,30.10,ENE,72,5.0,5.0,83,0.00,,,0.00,Wunderground v.1.15,2013-05-17 09:50:00,
2013-05-17 04:55:00,44.7,40.2,30.11,ENE,69,4.0,14.0,84,0.00,,,0.00,Wunderground v.1.15,2013-05-17 09:55:00,
2013-05-17 05:00:00,44.7,40.2,30.11,ENE,73,4.0,14.0,84,0.00,,,0.00,Wunderground v.1.15,2013-05-17 10:00:00,
2013-05-17 05:10:00,44.6,40.4,30.11,NNE,21,6.0,6.0,85,0.00,,,0.00,Wunderground v.1.15,2013-05-17 10:10:00,
2013-05-17 05:15:00,44.7,40.5,30.11,NE,49,6.0,14.0,85,0.00,,,0.00,Wunderground v.1.15,2013-05-17 10:15:00,
2013-05-17 05:20:00,44.7,40.5,30.11,ENE,65,5.0,5.0,85,0.00,,,0.00,Wunderground v.1.15,2013-05-17 10:20:00,
2013-05-17 05:25:00,44.7,40.5,30.11,NE,55,4.0,14.0,85,0.00,,,0.00,Wunderground v.1.15,2013-05-17 10:25:00,
2013-05-17 05:30:00,44.7,40.5,30.11,NE,56,4.0,4.0,85,0.00,,,0.00,Wunderground v.1.15,2013-05-17 10:30:00,
2013-05-17 05:35:00,44.8,40.6,30.11,ENE,57,4.0,14.0,85,0.00,,,0.00,Wunderground v.1.15,2013-05-17 10:35:00,
2013-05-17 05:40:00,44.9,40.7,30.12,NE,53,4.0,4.0,85,0.00,,,0.00,Wunderground v.1.15,2013-05-17 10:40:00,
2013-05-17 05:45:00,44.9,40.4,30.12,ENE,57,4.0,6.0,84,0.00,,,0.00,Wunderground v.1.15,2013-05-17 10:45:00,
2013-05-17 05:50:00,44.9,40.4,30.12,NE,38,6.0,6.0,84,0.00,,,0.00,Wunderground v.1.15,2013-05-17 10:50:00,
2013-05-17 05:55:00,45.0,40.5,30.12,ENE,59,5.0,8.0,84,0.00,,,0.00,Wunderground v.1.15,2013-05-17 10:55:00,
2013-05-17 06:00:00,45.1,40.6,30.12,NE,42,4.0,14.0,84,0.00,,,0.00,Wunderground v.1.15,2013-05-17 11:00:00,
2013-05-17 06:05:00,45.2,40.7,30.13,NE,49,5.0,14.0,84,0.00,,,0.00,Wunderground v.1.15,2013-05-17 11:05:00,
2013-05-17 06:10:00,45.3,40.4,30.13,NNE,29,5.0,14.0,83,0.00,,,0.00,Wunderground v.1.15,2013-05-17 11:10:00,
2013-05-17 06:15:00,45.4,40.5,30.13,NNE,28,6.0,14.0,83,0.00,,,0.00,Wunderground v.1.15,2013-05-17 11:15:00,
2013-05-17 06:20:00,45.5,40.6,30.14,NE,49,5.0,5.0,83,0.00,,,0.00,Wunderground v.1.15,2013-05-17 11:20:00,
2013-05-17 06:25:00,45.6,40.7,30.14,NNE,26,4.0,14.0,83,0.00,,,0.00,Wunderground v.1.15,2013-05-17 11:25:00,
2013-05-17 06:30:00,45.7,40.5,30.14,NE,40,4.0,14.0,82,0.00,,,0.00,Wunderground v.1.15,2013-05-17 11:30:00,
2013-05-17 06:35:00,45.7,40.5,30.15,NE,44,4.0,14.0,82,0.00,,,0.00,Wunderground v.1.15,2013-05-17 11:35:00,
2013-05-17 06:40:00,45.8,40.6,30.16,NNE,30,4.0,4.0,82,0.00,,,0.00,Wunderground v.1.15,2013-05-17 11:40:00,
2013-05-17 06:45:00,46.0,40.8,30.16,NNE,27,4.0,14.0,82,0.00,,,0.00,Wunderground v.1.15,2013-05-17 11:45:00,
2013-05-17 06:50:00,46.1,40.6,30.16,North,5,4.0,14.0,81,0.00,,,0.00,Wunderground v.1.15,2013-05-17 11:50:00,
2013-05-17 06:55:00,46.1,40.3,30.17,NNW,346,4.0,14.0,80,0.00,,,0.00,Wunderground v.1.15,2013-05-17 11:55:00,
2013-05-17 07:00:00,45.9,40.4,30.16,North,5,5.0,5.0,81,0.00,,,0.00,Wunderground v.1.15,2013-05-17 12:00:00,
2013-05-17 07:05:00,45.9,40.4,30.17,NNE,26,4.0,14.0,81,0.00,,,0.00,Wunderground v.1.15,2013-05-17 12:05:00,
2013-05-17 07:10:00,45.8,40.0,30.17,NE,39,4.0,14.0,80,0.00,,,0.00,Wunderground v.1.15,2013-05-17 12:10:00,
2013-05-17 07:20:00,45.7,39.9,30.16,NE,35,5.0,5.0,80,0.00,,,0.00,Wunderground v.1.15,2013-05-17 12:20:00,
2013-05-17 07:25:00,45.8,40.3,30.15,NNE,26,5.0,14.0,81,0.00,,,0.00,Wunderground v.1.15,2013-05-17 12:25:00,
2013-05-17 07:30:00,45.9,40.4,30.15,NE,36,4.0,14.0,81,0.00,,,0.00,Wunderground v.1.15,2013-05-17 12:30:00,
2013-05-17 07:35:00,46.1,40.3,30.14,NE,44,4.0,14.0,80,0.00,,,0.00,Wunderground v.1.15,2013-05-17 12:35:00,
2013-05-17 07:45:00,46.3,40.5,30.15,East,85,5.0,14.0,80,0.00,,,0.00,Wunderground v.1.15,2013-05-17 12:45:00,
2013-05-17 07:50:00,46.4,40.6,30.15,East,83,5.0,5.0,80,0.00,,,0.00,Wunderground v.1.15,2013-05-17 12:50:00,
2013-05-17 07:55:00,46.6,40.8,30.15,NE,40,4.0,14.0,80,0.00,,,0.00,Wunderground v.1.15,2013-05-17 12:55:00,
2013-05-17 08:00:00,46.6,40.4,30.15,ENE,60,4.0,4.0,79,0.00,,,0.00,Wunderground v.1.15,2013-05-17 13:00:00,
2013-05-17 08:05:00,46.6,40.4,30.15,East,85,5.0,7.0,79,0.00,,,0.00,Wunderground v.1.15,2013-05-17 13:05:00,
2013-05-17 08:10:00,46.6,40.4,30.15,ENE,59,5.0,5.0,79,0.00,,,0.00,Wunderground v.1.15,2013-05-17 13:10:00,
2013-05-17 08:15:00,46.7,40.5,30.15,ENE,61,5.0,6.0,79,0.00,,,0.00,Wunderground v.1.15,2013-05-17 13:15:00,
2013-05-17 08:20:00,46.8,40.6,30.15,NE,48,4.0,14.0,79,0.00,,,0.00,Wunderground v.1.15,2013-05-17 13:20:00,
2013-05-17 08:25:00,46.9,40.7,30.16,ENE,60,4.0,14.0,79,0.00,,,0.00,Wunderground v.1.15,2013-05-17 13:25:00,
2013-05-17 08:30:00,46.9,40.7,30.16,NE,40,4.0,14.0,79,0.00,,,0.00,Wunderground v.1.15,2013-05-17 13:30:00,
2013-05-17 08:35:00,46.7,40.5,30.16,ENE,57,4.0,14.0,79,0.00,,,0.00,Wunderground v.1.15,2013-05-17 13:35:00,
2013-05-17 08:40:00,46.8,40.6,30.16,ENE,61,4.0,14.0,79,0.00,,,0.00,Wunderground v.1.15,2013-05-17 13:40:00,
2013-05-17 08:45:00,46.6,40.1,30.16,ENE,63,4.0,14.0,78,0.00,,,0.00,Wunderground v.1.15,2013-05-17 13:45:00,
2013-05-17 08:50:00,46.5,40.0,30.16,ENE,75,5.0,14.0,78,0.00,,,0.00,Wunderground v.1.15,2013-05-17 13:50:00,
2013-05-17 09:00:00,46.5,40.0,30.16,ENE,72,6.0,14.0,78,0.00,,,0.00,Wunderground v.1.15,2013-05-17 14:00:00,
2013-05-17 09:05:00,46.5,40.0,30.16,NE,49,6.0,14.0,78,0.00,,,0.00,Wunderground v.1.15,2013-05-17 14:05:00,
2013-05-17 09:10:00,46.3,39.8,30.16,NNE,17,7.0,14.0,78,0.00,,,0.00,Wunderground v.1.15,2013-05-17 14:10:00,
2013-05-17 09:20:00,46.5,40.0,30.16,NE,51,6.0,6.0,78,0.00,,,0.00,Wunderground v.1.15,2013-05-17 14:20:00,
2013-05-17 09:25:00,46.4,39.9,30.17,NE,36,6.0,7.0,78,0.00,,,0.00,Wunderground v.1.15,2013-05-17 14:25:00,
2013-05-17 09:30:00,46.4,39.9,30.17,ENE,78,7.0,14.0,78,0.00,,,0.00,Wunderground v.1.15,2013-05-17 14:30:00,
2013-05-17 09:35:00,46.4,39.9,30.17,NE,44,7.0,14.0,78,0.00,,,0.00,Wunderground v.1.15,2013-05-17 14:35:00,
2013-05-17 09:40:00,46.5,40.0,30.17,NE,55,6.0,6.0,78,0.00,,,0.00,Wunderground v.1.15,2013-05-17 14:40:00,
2013-05-17 09:45:00,46.5,40.0,30.17,ENE,60,6.0,14.0,78,0.00,,,0.00,Wunderground v.1.15,2013-05-17 14:45:00,
2013-05-17 09:50:00,46.5,40.3,30.17,ENE,57,6.0,6.0,79,0.00,,,0.00,Wunderground v.1.15,2013-05-17 14:50:00,
2013-05-17 10:00:00,46.4,40.2,30.18,ENE,75,6.0,14.0,79,0.00,,,0.00,Wunderground v.1.15,2013-05-17 15:00:00,
2013-05-17 10:05:00,46.4,40.2,30.18,ENE,57,5.0,14.0,79,0.00,,,0.00,Wunderground v.1.15,2013-05-17 15:05:00,
2013-05-17 10:10:00,46.5,40.3,30.18,NE,42,5.0,14.0,79,0.00,,,0.00,Wunderground v.1.15,2013-05-17 15:10:00,
2013-05-17 10:15:00,46.3,40.1,30.18,NE,44,6.0,14.0,79,0.00,,,0.00,Wunderground v.1.15,2013-05-17 15:15:00,
2013-05-17 10:20:00,46.4,40.6,30.18,East,84,5.0,14.0,80,0.00,,,0.00,Wunderground v.1.15,2013-05-17 15:20:00,
2013-05-17 10:25:00,46.5,40.7,30.18,East,84,5.0,14.0,80,0.00,,,0.00,Wunderground v.1.15,2013-05-17 15:25:00,
2013-05-17 10:30:00,46.7,40.9,30.18,NE,40,5.0,5.0,80,0.00,,,0.00,Wunderground v.1.15,2013-05-17 15:30:00,
2013-05-17 10:35:00,46.8,41.0,30.19,NE,44,5.0,6.0,80,0.00,,,0.00,Wunderground v.1.15,2013-05-17 15:35:00,
2013-05-17 10:40:00,46.9,40.7,30.19,ENE,69,5.0,14.0,79,0.00,,,0.00,Wunderground v.1.15,2013-05-17 15:40:00,
2013-05-17 10:50:00,46.5,40.7,30.19,ENE,62,6.0,6.0,80,0.00,,,0.00,Wunderground v.1.15,2013-05-17 15:50:00,
2013-05-17 10:55:00,46.4,40.6,30.19,ENE,76,6.0,10.0,80,0.00,,,0.00,Wunderground v.1.15,2013-05-17 15:55:00,
2013-05-17 11:00:00,46.5,40.7,30.19,East,94,6.0,14.0,80,0.00,,,0.00,Wunderground v.1.15,2013-05-17 16:00:00,
2013-05-17 11:05:00,46.7,40.9,30.18,ENE,64,5.0,14.0,80,0.00,,,0.00,Wunderground v.1.15,2013-05-17 16:05:00,
2013-05-17 11:10:00,46.9,40.7,30.19,NE,56,5.0,14.0,79,0.00,,,0.00,Wunderground v.1.15,2013-05-17 16:10:00,
2013-05-17 11:15:00,47.0,40.8,30.18,ENE,57,6.0,14.0,79,0.00,,,0.00,Wunderground v.1.15,2013-05-17 16:15:00,
2013-05-17 11:20:00,47.2,41.3,30.18,East,90,6.0,6.0,80,0.00,,,0.00,Wunderground v.1.15,2013-05-17 16:20:00,
2013-05-17 11:25:00,47.8,41.3,30.18,NE,51,5.0,10.0,78,0.00,,,0.00,Wunderground v.1.15,2013-05-17 16:25:00,
2013-05-17 11:30:00,47.9,41.4,30.18,NE,48,6.0,14.0,78,0.00,,,0.00,Wunderground v.1.15,2013-05-17 16:30:00,
2013-05-17 11:35:00,48.1,41.6,30.17,NNE,19,7.0,14.0,78,0.00,,,0.00,Wunderground v.1.15,2013-05-17 16:35:00,
2013-05-17 11:40:00,48.3,41.8,30.17,NE,44,6.0,14.0,78,0.00,,,0.00,Wunderground v.1.15,2013-05-17 16:40:00,
2013-05-17 11:45:00,49.1,42.2,30.17,East,82,6.0,14.0,77,0.00,,,0.00,Wunderground v.1.15,2013-05-17 16:45:00,
2013-05-17 11:55:00,49.8,42.2,30.17,East,92,5.0,14.0,75,0.00,,,0.00,Wunderground v.1.15,2013-05-17 16:55:00,
2013-05-17 12:00:00,49.7,42.4,30.16,ESE,109,5.0,14.0,76,0.00,,,0.00,Wunderground v.1.15,2013-05-17 17:00:00,
2013-05-17 12:05:00,50.4,42.8,30.17,NE,56,6.0,14.0,75,0.00,,,0.00,Wunderground v.1.15,2013-05-17 17:05:00,
2013-05-17 12:10:00,50.0,42.0,30.16,ENE,59,6.0,14.0,74,0.00,,,0.00,Wunderground v.1.15,2013-05-17 17:10:00,
2013-05-17 12:20:00,49.5,41.9,30.16,NE,55,6.0,6.0,75,0.00,,,0.00,Wunderground v.1.15,2013-05-17 17:20:00,
2013-05-17 12:25:00,49.6,42.0,30.17,NE,55,5.0,14.0,75,0.00,,,0.00,Wunderground v.1.15,2013-05-17 17:25:00,
2013-05-17 12:35:00,49.3,41.4,30.17,NNE,32,6.0,14.0,74,0.00,,,0.00,Wunderground v.1.15,2013-05-17 17:35:00,
2013-05-17 12:40:00,49.4,41.8,30.17,NNE,28,6.0,14.0,75,0.00,,,0.00,Wunderground v.1.15,2013-05-17 17:40:00,
2013-05-17 12:45:00,49.8,41.8,30.16,East,82,5.0,14.0,74,0.00,,,0.00,Wunderground v.1.15,2013-05-17 17:45:00,
2013-05-17 12:50:00,49.6,41.7,30.17,NNE,31,5.0,14.0,74,0.00,,,0.00,Wunderground v.1.15,2013-05-17 17:50:00,
2013-05-17 12:55:00,49.6,41.7,30.16,ENE,63,5.0,14.0,74,0.00,,,0.00,Wunderground v.1.15,2013-05-17 17:55:00,
2013-05-17 13:05:00,50.0,42.0,30.16,NE,54,5.0,14.0,74,0.00,,,0.00,Wunderground v.1.15,2013-05-17 18:05:00,
2013-05-17 13:10:00,50.3,42.3,30.16,ENE,76,4.0,4.0,74,0.00,,,0.00,Wunderground v.1.15,2013-05-17 18:10:00,
2013-05-17 13:15:00,50.5,42.2,30.16,NE,40,4.0,14.0,73,0.00,,,0.00,Wunderground v.1.15,2013-05-17 18:15:00,
2013-05-17 13:20:00,50.8,42.5,30.16,East,94,4.0,14.0,73,0.00,,,0.00,Wunderground v.1.15,2013-05-17 18:20:00,
2013-05-17 13:25:00,51.0,42.6,30.15,NE,54,5.0,14.0,73,0.00,,,0.00,Wunderground v.1.15,2013-05-17 18:25:00,
2013-05-17 13:30:00,51.1,42.7,30.15,NE,55,6.0,14.0,73,0.00,,,0.00,Wunderground v.1.15,2013-05-17 18:30:00,
2013-05-17 13:35:00,50.8,42.5,30.15,NE,36,6.0,14.0,73,0.00,,,0.00,Wunderground v.1.15,2013-05-17 18:35:00,
2013-05-17 13:40:00,51.1,42.7,30.15,NE,35,7.0,14.0,73,0.00,,,0.00,Wunderground v.1.15,2013-05-17 18:40:00,
2013-05-17 13:45:00,51.8,43.1,30.15,NE,55,7.0,14.0,72,0.00,,,0.00,Wunderground v.1.15,2013-05-17 18:45:00,
2013-05-17 13:50:00,51.9,43.2,30.15,ENE,57,6.0,14.0,72,0.00,,,0.00,Wunderground v.1.15,2013-05-17 18:50:00,
2013-05-17 13:55:00,51.9,43.2,30.15,NNE,13,6.0,14.0,72,0.00,,,0.00,Wunderground v.1.15,2013-05-17 18:55:00,
2013-05-17 14:00:00,51.9,42.8,30.15,NNE,19,6.0,14.0,71,0.00,,,0.00,Wunderground v.1.15,2013-05-17 19:00:00,
2013-05-17 14:05:00,51.8,43.1,30.15,ESE,115,6.0,14.0,72,0.00,,,0.00,Wunderground v.1.15,2013-05-17 19:05:00,
2013-05-17 14:10:00,51.7,43.0,30.15,NE,39,6.0,14.0,72,0.00,,,0.00,Wunderground v.1.15,2013-05-17 19:10:00,
2013-05-17 14:15:00,51.5,42.8,30.15,ENE,57,6.0,14.0,72,0.00,,,0.00,Wunderground v.1.15,2013-05-17 19:15:00,
2013-05-17 14:20:00,51.4,42.7,30.15,ENE,77,5.0,5.0,72,0.00,,,0.00,Wunderground v.1.15,2013-05-17 19:20:00,
2013-05-17 14:25:00,51.1,42.7,30.15,ENE,73,5.0,14.0,73,0.00,,,0.00,Wunderground v.1.15,2013-05-17 19:25:00,
2013-05-17 14:30:00,50.9,42.9,30.14,East,88,6.0,6.0,74,0.00,,,0.00,Wunderground v.1.15,2013-05-17 19:30:00,
2013-05-17 14:35:00,51.0,43.0,30.14,East,96,6.0,14.0,74,0.00,,,0.00,Wunderground v.1.15,2013-05-17 19:35:00,
2013-05-17 14:40:00,51.5,43.1,30.14,NE,48,6.0,14.0,73,0.00,,,0.00,Wunderground v.1.15,2013-05-17 19:40:00,
2013-05-17 14:45:00,51.2,43.2,30.13,NE,40,6.0,14.0,74,0.00,,,0.00,Wunderground v.1.15,2013-05-17 19:45:00,
2013-05-17 14:50:00,51.3,43.6,30.14,ENE,71,5.0,5.0,75,0.00,,,0.00,Wunderground v.1.15,2013-05-17 19:50:00,
2013-05-17 14:55:00,51.7,43.7,30.14,NE,35,4.0,14.0,74,0.00,,,0.00,Wunderground v.1.15,2013-05-17 19:55:00,
2013-05-17 15:00:00,51.9,43.5,30.13,SE,128,5.0,14.0,73,0.00,,,0.00,Wunderground v.1.15,2013-05-17 20:00:00,
2013-05-17 15:05:00,52.1,43.3,30.13,ENE,73,6.0,14.0,72,0.00,,,0.00,Wunderground v.1.15,2013-05-17 20:05:00,
2013-05-17 15:10:00,51.9,43.2,30.13,NE,37,7.0,7.0,72,0.00,,,0.00,Wunderground v.1.15,2013-05-17 20:10:00,
2013-05-17 15:15:00,52.3,43.9,30.13,ENE,68,6.0,14.0,73,0.00,,,0.00,Wunderground v.1.15,2013-05-17 20:15:00,
2013-05-17 15:20:00,52.6,43.5,30.13,NE,45,5.0,14.0,71,0.00,,,0.00,Wunderground v.1.15,2013-05-17 20:20:00,
2013-05-17 15:25:00,53.0,43.8,30.13,North,5,5.0,14.0,71,0.00,,,0.00,Wunderground v.1.15,2013-05-17 20:25:00,
2013-05-17 15:30:00,52.9,43.7,30.13,ENE,67,6.0,6.0,71,0.00,,,0.00,Wunderground v.1.15,2013-05-17 20:30:00,
2013-05-17 15:35:00,52.8,43.7,30.13,NE,48,7.0,7.0,71,0.00,,,0.00,Wunderground v.1.15,2013-05-17 20:35:00,
2013-05-17 15:40:00,53.2,43.7,30.13,North,5,6.0,14.0,70,0.00,,,0.00,Wunderground v.1.15,2013-05-17 20:40:00,
2013-05-17 15:45:00,53.8,43.9,30.13,NE,43,5.0,14.0,69,0.00,,,0.00,Wunderground v.1.15,2013-05-17 20:45:00,
2013-05-17 15:50:00,53.7,43.8,30.13,East,100,5.0,5.0,69,0.00,,,0.00,Wunderground v.1.15,2013-05-17 20:50:00,
2013-05-17 15:55:00,54.1,44.2,30.13,NE,48,4.0,14.0,69,0.00,,,0.00,Wunderground v.1.15,2013-05-17 20:55:00,
2013-05-17 16:00:00,54.5,44.2,30.13,ESE,119,4.0,14.0,68,0.00,,,0.00,Wunderground v.1.15,2013-05-17 21:00:00,
2013-05-17 16:05:00,54.7,44.0,30.13,SE,135,4.0,14.0,67,0.00,,,0.00,Wunderground v.1.15,2013-05-17 21:05:00,
2013-05-17 16:10:00,54.8,43.7,30.13,SE,125,4.0,14.0,66,0.00,,,0.00,Wunderground v.1.15,2013-05-17 21:10:00,
2013-05-17 16:15:00,55.0,44.2,30.13,ENE,76,4.0,14.0,67,0.00,,,0.00,Wunderground v.1.15,2013-05-17 21:15:00,
2013-05-17 16:20:00,55.4,43.8,30.13,NE,49,3.0,3.0,65,0.00,,,0.00,Wunderground v.1.15,2013-05-17 21:20:00,
2013-05-17 16:25:00,55.4,43.4,30.13,SE,130,3.0,4.0,64,0.00,,,0.00,Wunderground v.1.15,2013-05-17 21:25:00,
2013-05-17 16:35:00,55.3,44.1,30.13,NE,54,3.0,14.0,66,0.00,,,0.00,Wunderground v.1.15,2013-05-17 21:35:00,
2013-05-17 16:40:00,55.3,44.1,30.14,NE,52,3.0,14.0,66,0.00,,,0.00,Wunderground v.1.15,2013-05-17 21:40:00,
2013-05-17 16:45:00,55.0,44.2,30.14,NNE,30,3.0,14.0,67,0.00,,,0.00,Wunderground v.1.15,2013-05-17 21:45:00,
2013-05-17 16:50:00,54.7,44.3,30.14,NE,41,4.0,4.0,68,0.00,,,0.00,Wunderground v.1.15,2013-05-17 21:50:00,
2013-05-17 16:55:00,54.7,44.7,30.14,East,82,3.0,6.0,69,0.00,,,0.00,Wunderground v.1.15,2013-05-17 21:55:00,
2013-05-17 17:05:00,54.9,44.5,30.13,NE,51,3.0,4.0,68,0.00,,,0.00,Wunderground v.1.15,2013-05-17 22:05:00,
2013-05-17 17:10:00,55.0,44.6,30.13,ESE,113,3.0,14.0,68,0.00,,,0.00,Wunderground v.1.15,2013-05-17 22:10:00,
2013-05-17 17:15:00,55.0,43.8,30.13,SSE,166,3.0,14.0,66,0.00,,,0.00,Wunderground v.1.15,2013-05-17 22:15:00,
2013-05-17 17:20:00,55.1,43.5,30.13,SE,144,3.0,3.0,65,0.00,,,0.00,Wunderground v.1.15,2013-05-17 22:20:00,
2013-05-17 17:25:00,55.2,43.6,30.13,ESE,104,3.0,5.0,65,0.00,,,0.00,Wunderground v.1.15,2013-05-17 22:25:00,
2013-05-17 17:35:00,54.8,44.0,30.13,South,172,3.0,14.0,67,0.00,,,0.00,Wunderground v.1.15,2013-05-17 22:35:00,
2013-05-17 17:40:00,54.7,44.0,30.13,ESE,103,3.0,14.0,67,0.00,,,0.00,Wunderground v.1.15,2013-05-17 22:40:00,
2013-05-17 17:45:00,54.4,43.3,30.13,SSE,151,2.0,14.0,66,0.00,,,0.00,Wunderground v.1.15,2013-05-17 22:45:00,
2013-05-17 17:50:00,54.2,43.9,30.13,South,169,2.0,14.0,68,0.00,,,0.00,Wunderground v.1.15,2013-05-17 22:50:00,
2013-05-17 17:55:00,54.2,43.9,30.13,SSE,166,2.0,14.0,68,0.00,,,0.00,Wunderground v.1.15,2013-05-17 22:55:00,
2013-05-17 18:00:00,54.0,43.7,30.13,SSE,158,2.0,14.0,68,0.00,,,0.00,Wunderground v.1.15,2013-05-17 23:00:00,
2013-05-17 18:05:00,54.0,44.1,30.13,SSE,158,2.0,14.0,69,0.00,,,0.00,Wunderground v.1.15,2013-05-17 23:05:00,
2013-05-17 18:10:00,54.0,44.1,30.13,SE,126,1.0,14.0,69,0.00,,,0.00,Wunderground v.1.15,2013-05-17 23:10:00,
2013-05-17 18:15:00,54.0,44.4,30.13,SE,139,1.0,14.0,70,0.00,,,0.00,Wunderground v.1.15,2013-05-17 23:15:00,
2013-05-17 18:20:00,53.9,44.3,30.13,SE,144,1.0,1.0,70,0.00,,,0.00,Wunderground v.1.15,2013-05-17 23:20:00,
2013-05-17 18:25:00,53.9,44.3,30.13,SE,143,1.0,14.0,70,0.00,,,0.00,Wunderground v.1.15,2013-05-17 23:25:00,
2013-05-17 18:30:00,53.9,44.3,30.13,ESE,119,0.0,14.0,70,0.00,,,0.00,Wunderground v.1.15,2013-05-17 23:30:00,
2013-05-17 18:40:00,53.9,44.3,30.13,East,94,0.0,14.0,70,0.00,,,0.00,Wunderground v.1.15,2013-05-17 23:40:00,
2013-05-17 18:50:00,54.0,44.8,30.13,SE,126,0.0,14.0,71,0.00,,,0.00,Wunderground v.1.15,2013-05-17 23:50:00,
2013-05-17 18:55:00,54.0,44.8,30.13,ESE,110,1.0,14.0,71,0.00,,,0.00,Wunderground v.1.15,2013-05-17 23:55:00,
2013-05-17 19:00:00,54.0,44.8,30.13,ESE,110,1.0,1.0,71,0.00,,,0.00,Wunderground v.1.15,2013-05-18 00:00:00,
2013-05-17 19:05:00,54.0,44.8,30.13,ESE,110,1.0,14.0,71,0.00,,,0.00,Wunderground v.1.15,2013-05-18 00:05:00,
2013-05-17 19:10:00,54.1,45.3,30.12,ESE,110,1.0,1.0,72,0.00,,,0.00,Wunderground v.1.15,2013-05-18 00:10:00,
2013-05-17 19:15:00,54.1,44.9,30.13,ESE,110,1.0,14.0,71,0.00,,,0.00,Wunderground v.1.15,2013-05-18 00:15:00,
2013-05-17 19:20:00,54.2,45.0,30.13,SE,138,1.0,14.0,71,0.00,,,0.00,Wunderground v.1.15,2013-05-18 00:20:00,
2013-05-17 19:25:00,54.3,45.5,30.13,SE,138,1.0,14.0,72,0.00,,,0.00,Wunderground v.1.15,2013-05-18 00:25:00,
2013-05-17 19:30:00,54.3,45.5,30.13,SE,138,0.0,14.0,72,0.00,,,0.00,Wunderground v.1.15,2013-05-18 00:30:00,
2013-05-17 19:35:00,54.4,45.6,30.13,SE,138,0.0,14.0,72,0.00,,,0.00,Wunderground v.1.15,2013-05-18 00:35:00,
2013-05-17 19:40:00,54.4,45.2,30.13,SE,138,0.0,14.0,71,0.00,,,0.00,Wunderground v.1.15,2013-05-18 00:40:00,
2013-05-17 19:45:00,54.4,45.6,30.13,SE,138,0.0,14.0,72,0.00,,,0.00,Wunderground v.1.15,2013-05-18 00:45:00,
2013-05-17 19:50:00,54.4,45.6,30.13,SE,138,0.0,14.0,72,0.00,,,0.00,Wunderground v.1.15,2013-05-18 00:50:00,
2013-05-17 19:55:00,54.4,45.6,30.13,SE,138,0.0,14.0,72,0.00,,,0.00,Wunderground v.1.15,2013-05-18 00:55:00,
2013-05-17 20:00:00,54.3,45.5,30.13,SE,138,0.0,14.0,72,0.00,,,0.00,Wunderground v.1.15,2013-05-18 01:00:00,
2013-05-17 20:05:00,54.3,45.8,30.13,SE,138,0.0,14.0,73,0.00,,,0.00,Wunderground v.1.15,2013-05-18 01:05:00,
2013-05-17 20:10:00,54.3,45.5,30.13,SE,138,0.0,14.0,72,0.00,,,0.00,Wunderground v.1.15,2013-05-18 01:10:00,
2013-05-17 20:15:00,54.3,45.8,30.13,SE,138,0.0,14.0,73,0.00,,,0.00,Wunderground v.1.15,2013-05-18 01:15:00,
2013-05-17 20:20:00,54.3,45.5,30.13,ESE,112,0.0,14.0,72,0.00,,,0.00,Wunderground v.1.15,2013-05-18 01:20:00,
2013-05-17 20:25:00,54.1,45.3,30.14,ESE,112,0.0,14.0,72,0.00,,,0.00,Wunderground v.1.15,2013-05-18 01:25:00,
2013-05-17 20:30:00,54.0,45.2,30.14,ESE,112,0.0,14.0,72,0.00,,,0.00,Wunderground v.1.15,2013-05-18 01:30:00,
2013-05-17 20:35:00,53.8,45.3,30.14,ENE,65,0.0,14.0,73,0.00,,,0.00,Wunderground v.1.15,2013-05-18 01:35:00,
2013-05-17 20:40:00,53.6,45.9,30.14,ENE,69,1.0,14.0,75,0.00,,,0.00,Wunderground v.1.15,2013-05-18 01:40:00,
2013-05-17 20:45:00,53.2,45.8,30.14,ENE,58,2.0,14.0,76,0.00,,,0.00,Wunderground v.1.15,2013-05-18 01:45:00,
2013-05-17 20:50:00,52.8,44.7,30.14,ENE,57,3.0,14.0,74,0.00,,,0.00,Wunderground v.1.15,2013-05-18 01:50:00,
2013-05-17 20:55:00,52.3,44.6,30.14,NE,40,3.0,14.0,75,0.00,,,0.00,Wunderground v.1.15,2013-05-18 01:55:00,
2013-05-17 21:00:00,52.0,44.7,30.14,NE,44,3.0,14.0,76,0.00,,,0.00,Wunderground v.1.15,2013-05-18 02:00:00,
2013-05-17 21:05:00,51.5,44.2,30.15,NE,48,3.0,14.0,76,0.00,,,0.00,Wunderground v.1.15,2013-05-18 02:05:00,
2013-05-17 21:10:00,51.3,44.3,30.15,NE,44,3.0,3.0,77,0.00,,,0.00,Wunderground v.1.15,2013-05-18 02:10:00,
2013-05-17 21:20:00,50.8,44.5,30.15,NE,47,3.0,3.0,79,0.00,,,0.00,Wunderground v.1.15,2013-05-18 02:20:00,
2013-05-17 21:25:00,50.6,44.3,30.15,ENE,71,3.0,4.0,79,0.00,,,0.00,Wunderground v.1.15,2013-05-18 02:25:00,
2013-05-17 21:30:00,50.4,44.1,30.15,ENE,75,3.0,14.0,79,0.00,,,0.00,Wunderground v.1.15,2013-05-18 02:30:00,
2013-05-17 21:35:00,50.2,43.9,30.15,NE,42,4.0,14.0,79,0.00,,,0.00,Wunderground v.1.15,2013-05-18 02:35:00,
2013-05-17 21:40:00,50.1,43.8,30.15,NE,44,4.0,4.0,79,0.00,,,0.00,Wunderground v.1.15,2013-05-18 02:40:00,
2013-05-17 21:45:00,50.0,43.4,30.15,NE,51,4.0,14.0,78,0.00,,,0.00,Wunderground v.1.15,2013-05-18 02:45:00,
2013-05-17 21:50:00,49.9,43.6,30.15,NE,50,4.0,4.0,79,0.00,,,0.00,Wunderground v.1.15,2013-05-18 02:50:00,
2013-05-17 21:55:00,50.0,43.7,30.15,ENE,57,3.0,14.0,79,0.00,,,0.00,Wunderground v.1.15,2013-05-18 02:55:00,
2013-05-17 22:00:00,50.1,43.8,30.15,NE,48,2.0,14.0,79,0.00,,,0.00,Wunderground v.1.15,2013-05-18 03:00:00,
2013-05-17 22:05:00,50.2,43.9,30.15,NE,53,2.0,14.0,79,0.00,,,0.00,Wunderground v.1.15,2013-05-18 03:05:00,
2013-05-17 22:10:00,50.3,44.0,30.15,ENE,69,2.0,14.0,79,0.00,,,0.00,Wunderground v.1.15,2013-05-18 03:10:00,
2013-05-17 22:15:00,50.4,44.1,30.15,NE,53,3.0,14.0,79,0.00,,,0.00,Wunderground v.1.15,2013-05-18 03:15:00,
2013-05-17 22:20:00,50.5,44.2,30.15,ENE,57,3.0,3.0,79,0.00,,,0.00,Wunderground v.1.15,2013-05-18 03:20:00,
2013-05-17 22:25:00,50.5,44.2,30.15,ENE,71,3.0,4.0,79,0.00,,,0.00,Wunderground v.1.15,2013-05-18 03:25:00,
2013-05-17 22:30:00,50.4,44.1,30.14,NE,49,4.0,14.0,79,0.00,,,0.00,Wunderground v.1.15,2013-05-18 03:30:00,
2013-05-17 22:35:00,50.3,44.0,30.14,East,84,3.0,14.0,79,0.00,,,0.00,Wunderground v.1.15,2013-05-18 03:35:00,
2013-05-17 22:40:00,50.2,43.9,30.14,NE,50,3.0,14.0,79,0.00,,,0.00,Wunderground v.1.15,2013-05-18 03:40:00,
2013-05-17 22:45:00,50.3,44.0,30.14,North,11,3.0,14.0,79,0.00,,,0.00,Wunderground v.1.15,2013-05-18 03:45:00,
2013-05-17 22:50:00,50.5,44.2,30.15,ENE,59,3.0,3.0,79,0.00,,,0.00,Wunderground v.1.15,2013-05-18 03:50:00,
2013-05-17 22:55:00,50.6,44.3,30.14,East,82,2.0,14.0,79,0.00,,,0.00,Wunderground v.1.15,2013-05-18 03:55:00,
2013-05-17 23:00:00,50.7,44.4,30.14,East,84,2.0,14.0,79,0.00,,,0.00,Wunderground v.1.15,2013-05-18 04:00:00,
2013-05-17 23:05:00,50.8,44.2,30.14,ENE,64,1.0,14.0,78,0.00,,,0.00,Wunderground v.1.15,2013-05-18 04:05:00,
2013-05-17 23:10:00,51.0,43.7,30.14,ENE,62,1.0,14.0,76,0.00,,,0.00,Wunderground v.1.15,2013-05-18 04:10:00,
2013-05-17 23:15:00,51.2,43.9,30.14,NE,56,1.0,14.0,76,0.00,,,0.00,Wunderground v.1.15,2013-05-18 04:15:00,
2013-05-17 23:20:00,51.3,44.0,30.14,NE,56,1.0,14.0,76,0.00,,,0.00,Wunderground v.1.15,2013-05-18 04:20:00,
2013-05-17 23:25:00,51.4,43.7,30.14,NE,53,2.0,14.0,75,0.00,,,0.00,Wunderground v.1.15,2013-05-18 04:25:00,
2013-05-17 23:30:00,51.5,43.8,30.14,ENE,60,3.0,14.0,75,0.00,,,0.00,Wunderground v.1.15,2013-05-18 04:30:00,
2013-05-17 23:35:00,51.4,43.7,30.14,NE,46,3.0,14.0,75,0.00,,,0.00,Wunderground v.1.15,2013-05-18 04:35:00,
2013-05-17 23:40:00,51.4,43.7,30.14,NE,53,3.0,14.0,75,0.00,,,0.00,Wunderground v.1.15,2013-05-18 04:40:00,
2013-05-17 23:45:00,51.4,43.7,30.13,ENE,67,3.0,14.0,75,0.00,,,0.00,Wunderground v.1.15,2013-05-18 04:45:00,
2013-05-17 23:50:00,51.3,44.0,30.14,NNE,30,3.0,3.0,76,0.00,,,0.00,Wunderground v.1.15,2013-05-18 04:50:00,